Location: Azul
(36.7830°S, 59.8500°W)
Time: 18:57:21
(UTC-03:00)

AIST 2D - Pass Details

Date: 30 October 2021
Orbit: 445 x 462 km, 97.1° (Epoch: 06 December)

Event Time Altitude Azimuth Distance (km) Brightness Sun altitude
Exits shadow 22:35:10 17° 211° (SSW) 1,247 ? -30.8°
Drops below altitude 10° 22:36:04 10° 205° (SSW) 1,602 ? -31.0°
Sets 22:38:11 0° 198° (SSW) 2,483 ? -31.2°
